Tracking 17884 objects as of 3-December-2016
HD Live streaming from Space Station
objects crossing your sky now

GOES 7

Track GOES 7 now!
GOES 7 is classified as:


NORAD ID: 17561
Int'l Code: 1987-022A
Perigee: 35,876.3 km
Apogee: 35,926.3 km
Inclination: 15.1 °
Period: 1,441.6 minutes
Semi major axis: 42272 km
RCS: 10.3409 m2 (large)
Launch date: February 26, 1987
Source: United States (US)
Launch site: AIR FORCE EASTERN TEST RANGE (AFETR)
Your satellite tracking list
Your tracking list is empty





NASA's NSSDC Master Catalog

Two Line Element Set (TLE):
1 17561U 87022A   16337.94666084 -.00000098 +00000-0 +00000-0 0  9990
2 17561 015.1321 007.8942 0005915 270.0503 218.3679 00.99889278092166
Source of the keplerian elements: AFSPC